Tracking 30922 objects as of 2-Jul-2025
HD Live streaming from Space Station
objects crossing your sky now

STARLINK-31004

Track STARLINK-31004 now!
10-day predictions
STARLINK-31004 is classified as:


NORAD ID: 58528
Int'l Code: 2023-191W
Perigee: 565.5 km
Apogee: 567.0 km
Inclination: 43.0 °
Period: 95.8 minutes
Semi major axis: 6937 km
RCS: Unknown
Launch date: December 7, 2023
Source: United States (US)
Launch site: AIR FORCE EASTERN TEST RANGE (AFETR)
Your satellite tracking list
STARLINK-5672
Track 1 satellite(s)




NASA's NSSDC Master Catalog

Two Line Element Set (TLE):
1 58528U 23191W   25182.86996479 -.00000252  00000-0 -35534-5 0  9996
2 58528  43.0037  28.6856 0001056 257.5111 102.5613 15.02532232 87734
Source of the keplerian elements: AFSPC